Terminal Aerodrome Forecast
Issued by NWS Wichita, KS

Home | Current Version | Previous Version | Text Only | Print | Product List | Glossary On
Versions: 1 2 3 4 5 6 7 8 9 10 11 12 13 14 15 16 17 18 19 20 21 22 23 24
432
FTUS43 KICT 171003 AAC
TAFICT
TAF AMD
KICT 171003Z 1710/1806 01010KT P6SM VCSH BKN018
     FM171600 04007KT P6SM BKN030
     FM180200 06008KT P6SM VCTS BKN035CB=

USA.gov is the U.S. government's official web portal to all federal, state and local government web resources and services.